Regional Weather Roundup
Issued by NWS

Home | Current Version | Previous Version | Graphics & Text | Print | Product List | Glossary On
Versions: 1 2 3 4 5 6 7 8 9 10 11 12 13 14 15 16 17 18 19 20 21 22 23 24 25 26 27 28 29 30 31 32 33 34 35 36 37 38 39 40 41 42 43 44 45 46 47 48 49 50
000
ASUS45 KTFX 271704
RWRMT
MONTANA HOURLY WEATHER ROUNDUP
NATIONAL WEATHER SERVICE GREAT FALLS MT
1004 AM MST FRI FEB 27 2015

NOTE: "FAIR" INDICATES FEW OR NO CLOUDS BELOW 12000 FEET WITH NO
SIGNIFICANT WEATHER AND/OR OBSTRUCTIONS TO VISIBILITY.

* THESE STATIONS ARE NOT UNDER NWS QUALITY CONTROL. THEY DO NOT
   REPORT WEATHER SUCH AS PRECIPITATION OR FOG.

MTZ001>007-043-271800-
WEST OF THE DIVIDE
CITY           SKY/WX    TMP DP  RH WIND       PRES   REMARKS
KALISPELL      PTSUNNY   30  12  47 NE18      29.92R WCI  18
MISSOULA       CLOUDY    27  12  53 E12       29.90S WCI  16
BUTTE          PTSUNNY   16   9  74 CALM      29.82F
MULLAN PASS    LGT SNOW  19  18  96 SE6       29.73S WCI  11
* ANACONDA     PTCLDY    18   9  68 SE3        N/A
* ESSEX        N/A       23   9  55 SE6G13     N/A   WCI  16
* LINCOLN      N/A       11   1  64 E2         N/A
* LOOKOUT PASS N/A       26  19  75 S4G9       N/A
* POLSON       N/A       29  21  72 NW2        N/A
* RONAN APT    PTSUNNY   30  21  69 VRB7       N/A   WCI  23
* SEELEY LAKE  N/A       20   8  59 SW3        N/A
* THOMP F APT  PTCLDY    21  16  81 S1         N/A
* YAAK HILL    N/A       31  26  82 N1         N/A
$$

MTZ008-052>055-271800-
SOUTHWEST MONTANA
CITY           SKY/WX    TMP DP  RH WIND       PRES   REMARKS
BOZEMAN        SUNNY     14   7  73 VRB3      29.92S
DILLON         PTSUNNY   19  10  68 NE5       29.83F WCI  12
* W YELLOWSTON PTCLDY    11   1  64 SW2        N/A
* THREE FORKS  PTCLDY    16   9  74 N/A        N/A
* BOULDER HILL N/A       11   6  80 SW9        N/A   WCI  -2
* MONIDA PASS  N/A       19  14  81 NE2        N/A
* RAYNOLDS PAS N/A        9  -4  55 S6         N/A   WCI  -1
* WHITEHALL    N/A       17   7  65 NE3        N/A
* WISE RIVER   N/A       15   7  70 E2         N/A
$$

MTZ009>010-012-014-046-048-049-054-271800-
EAST SLOPES AND CENTRAL MONTANA
CITY           SKY/WX    TMP DP  RH WIND       PRES   REMARKS
CUT BANK       LGT SNOW  14   9  80 N22       29.99R VSB 3    WCI  -4
GREAT FALLS    CLOUDY    12   9  88 NW8       29.99R
HELENA         PTSUNNY   16   9  74 N6        29.98R WCI   7
* DEARBORN     N/A       14   7  73 N/A        N/A
* EAST GLACIER N/A       13   6  73 N11G17     N/A
* MONARCH      N/A       13   1  58 NW2        N/A
* PENDROY      N/A       14  10  84 N23G29     N/A   WCI  -5
* ROGERS PASS  N/A       10   6  84 S4G9       N/A
* SWEET GRASS  N/A       11   7  84 N22G27     N/A   WCI  -8
$$

MTZ011-013-016-021-035-040-045-047-050-051-271800-
NORTH CENTRAL MONTANA
CITY           SKY/WX    TMP DP  RH WIND       PRES   REMARKS
HAVRE          PTCLDY     9   1  70 VRB3      30.07R
LEWISTOWN      PTCLDY    10   1  67 CALM      29.91R
* N BAR RANCH  SUNNY     14   1  56 CALM      29.88R
* CHESTER      N/A       10   2  70 W2         N/A
* DENTON       N/A        8  -1  66 S1         N/A
* GEYSER       N/A       13   5  70 W14G19     N/A   WCI  -2
* JUDITH GAP   N/A        6   4  91 S6         N/A   WCI  -5
* LOMA         N/A        9   1  70 SE3        N/A
$$

MTZ017>020-022>027-061-062-271800-
NORTHEAST MONTANA
CITY           SKY/WX    TMP DP  RH WIND       PRES   REMARKS
GLASGOW        SUNNY      9   0  66 SE13      30.09F WCI  -7
GLENDIVE       SUNNY     16   5  62 S13       30.13F WCI   2
JORDAN         SUNNY     12   3  67 S8        30.05F
SIDNEY         SUNNY     12  -6  44 S7        30.22F WCI   1
WOLF POINT     SUNNY     12   1  61 SE3       30.16F
* BEAVER HILL  N/A       14   2  59 SE16G22    N/A   WCI  -2
* CIRCLE       N/A       13   4  67 S9G16      N/A   WCI   1
* LINDSAY DVD  N/A       10   3  73 SE18G24    N/A   WCI  -8
* NAVAJO       N/A        7  -2  66 S12        N/A   WCI  -9
* SACO         N/A        8  -2  63 SE7        N/A   WCI  -3
$$

MTZ028>042-056>058-271800-
SOUTHCENTRAL AND SOUTHEAST MONTANA
CITY           SKY/WX    TMP DP  RH WIND       PRES   REMARKS
BAKER          SUNNY     12   1  61 SE14G23   30.11F WCI  -4
BILLINGS       PTCLDY    10   3  73 SW3       29.96F
LIVINGSTON     SUNNY     10   1  67 NW12      29.87F WCI  -5
MILES CITY     SUNNY     12   3  67 SE14      30.08F WCI  -4
* LAUREL APT   SUNNY      9   0  66 N/A        N/A
* ROUNDUP APT  PTCLDY    12   1  61 SW8        N/A
* ALZADA       N/A        3  -3  76 SE3        N/A
* HYSHAM       N/A       15   0  51 S3         N/A
* LAME DEER    N/A        7   2  80 S13G20     N/A   WCI  -9
* REED POINT   N/A       14   7  73 NE1        N/A
$$

REGIONAL REPORTS...DAKOTAS
CITY           SKY/WX    TMP DP  RH WIND       PRES   REMARKS
WILLISTON      SUNNY      7  -4  60 SE8       30.22F WCI  -6
DICKINSON      SUNNY     14   1  56 S20       30.17F WCI  -4
BEACH          SUNNY     12   1  61 S17G23    30.14F WCI  -5
CROSBY         SUNNY      7  -2  66 S13       30.21F WCI  -9
WATFORD CITY   SUNNY     12   0  58 S12       30.19F WCI  -2
BISMARCK       SUNNY      9   0  66 N/A       30.37F
GRAND FORKS    SUNNY      9  -4  55 W7        30.44F WCI  -2
FARGO          SUNNY      3  -6  66 SW8       30.49S WCI -10
BUFFALO SD     SUNNY     10   3  73 S14       30.06F WCI  -6
RAPID CITY     SUNNY     12   3  67 S23G29    30.16F WCI  -7
$$

REGIONAL REPORTS...WYOMING/IDAHO/WASHINGTON
CITY           SKY/WX    TMP DP  RH WIND       PRES   REMARKS
GILLETTE       HAZE      10   3  73 S23       29.96F WCI -10
SHERIDAN       SUNNY      1  -2  87 NW3       29.96F
CODY           PTCLDY    12   9  88 SE3       29.87S
YELLOWSTONE LA SUNNY      3  -2  79 E3        29.77F
SALMON         CLOUDY    28  21  75 CALM      29.82S
MULLAN PASS    LGT SNOW  19  18  96 SE6       29.73S WCI  11
SAND POINT     CLOUDY    37  27  67 NE13G22   29.88R WCI  29
SPOKANE        PTCLDY    34  28  79 NE10      29.81S WCI  26
$$

REGIONAL REPORTS...ALBERTA
CITY           SKY/WX    TMP DP  RH WIND       PRES   REMARKS
CALGARY        PTSUNNY   18  10  71 N15G23    30.07R WCI   4
EDMONTON       LGT SNOW  10   5  80 N9        30.18R VSB 3    WCI  -3

$$



USA.gov is the U.S. government's official web portal to all federal, state and local government web resources and services.